Angoon, AK

12:41 AM AKDT on October 23, 2019 (GMT -0800)
Angoon

Weather History for PAGN - May, 2019

Change the Weather History Date:

Friday, May 24, 2019

  Actual Average (PASI) Record (PASI)
Temperature  
Mean Temperature 48 °F 49 °F  
Max Temperature 54 °F 54 °F 68 °F (1969)
Min Temperature 44 °F 44 °F 34 °F (1972)
Degree Days  
Heating Degree Days 17 16  
Month to date heating degree days 430  
Moisture  
Dew Point 42 °F    
Average Humidity 78    
Maximum Humidity 90    
Minimum Humidity 63    
Precipitation  
Precipitation 0.00 in 0.14 in 1.43 in (1982)
Month to date precipitation 3.36  
Year to date precipitation 28.73  
Sea Level Pressure  
Sea Level Pressure 30.16 in    
Wind  
Wind Speed 1 mph (WSW)    
Max Wind Speed 6 mph    
Max Gust Speed -    
Visibility 10 miles    
Events Rain    
T = Trace of Precipitation, MM = Missing Value Source: NWS Daily Summary

Daily Weather History Graph

Daily Weather History Graph

Search for Another Location

Airport or City:

Astronomy

May. 24, 2019 Rise Set
Actual Time 4:20 AM AKDT 9:30 PM AKDT
Civil Twilight 3:21 AM AKDT 10:30 PM AKDT
Nautical Twilight 1:27 AM AKDT 12:22 AM AKDT
Astronomical Twilight Sun does not rise Sun does not rise
Moon 1:54 AM AKDT (5/24) 9:36 AM AKDT (5/24)
Length of Visible Light 19h 09m
Length of Day
17h 10m
Waning Gibbous, 67% of the Moon is Illuminated
May 24
Waning Gibbous
May 26
Last Quarter
Jun 3
New
Jun 9
First Quarter
Jun 17
Full

Hourly Weather History & Observations

Time (AKDT) Temp. Windchill Dew Point Humidity Pressure Visibility Wind Dir Wind Speed Gust Speed Precip Events Conditions
12:56 AM 45.0 °F - 41.0 °F 86% 30.18 in 10.0 mi Calm Calm - N/A   Overcast
1:56 AM 46.0 °F 44.8 °F 41.0 °F 83% 30.19 in 10.0 mi SW 3.5 mph - N/A   Overcast
2:56 AM 44.1 °F - 41.0 °F 89% 30.19 in 10.0 mi Calm Calm - N/A   Mostly Cloudy
3:56 AM 44.1 °F - 41.0 °F 89% 30.19 in 10.0 mi Calm Calm - N/A   Overcast
4:56 AM 45.0 °F - 42.1 °F 90% 30.19 in 10.0 mi Calm Calm - N/A   Overcast
5:56 AM 46.0 °F - 42.1 °F 86% 30.19 in 10.0 mi Calm Calm - N/A   Overcast
6:56 AM 48.0 °F - 42.1 °F 80% 30.18 in 10.0 mi Calm Calm - N/A   Overcast
7:56 AM 48.9 °F - 42.1 °F 77% 30.17 in 10.0 mi Calm Calm - N/A   Mostly Cloudy
9:56 AM 50.0 °F - 41.0 °F 71% 30.17 in 10.0 mi Calm Calm - N/A   Overcast
10:56 AM 50.0 °F - 41.0 °F 71% 30.17 in 10.0 mi Calm Calm - N/A   Overcast
11:56 AM 52.0 °F - 39.9 °F 63% 30.17 in 10.0 mi Variable 3.5 mph - N/A   Overcast
12:56 PM 51.1 °F - 42.1 °F 71% 30.17 in 10.0 mi SSW 3.5 mph - 0.00 in Rain Light Rain
1:56 PM 52.0 °F - 42.1 °F 69% 30.14 in 10.0 mi Calm Calm - 0.00 in   Mostly Cloudy
2:56 PM 52.0 °F - 41.0 °F 66% 30.14 in 10.0 mi SW 5.8 mph - N/A   Clear
3:56 PM 52.0 °F - 42.1 °F 69% 30.14 in 10.0 mi Variable 5.8 mph - N/A   Mostly Cloudy
4:56 PM 51.1 °F - 44.1 °F 77% 30.14 in 10.0 mi Variable 4.6 mph - N/A   Partly Cloudy
5:56 PM 51.1 °F - 43.0 °F 74% 30.13 in 10.0 mi Variable 3.5 mph - N/A   Clear
6:56 PM 50.0 °F - 42.1 °F 74% 30.14 in 10.0 mi NNW 3.5 mph - N/A   Clear
7:56 PM 50.0 °F - 42.1 °F 74% 30.14 in 10.0 mi Calm Calm - N/A   Clear
8:56 PM 48.9 °F - 43.0 °F 80% 30.14 in 10.0 mi Calm Calm - N/A   Clear
9:56 PM 48.0 °F - 43.0 °F 83% 30.14 in 10.0 mi Calm Calm - N/A   Clear
10:56 PM 46.9 °F - 43.0 °F 86% 30.14 in 10.0 mi Calm Calm - N/A   Clear
11:56 PM 46.9 °F - 44.1 °F 90% 30.14 in 10.0 mi Calm Calm - N/A   Clear